Date_Time,Julian_Date,Latitude,Longitude,Instrument_Depth,U,V,Speed,Direction
(yyyy-mm-dd hh:mn:ss UTC),(JD),(+ deg. North),(+ deg. East),(m),(cm/s),(cm/s),(cm/s),(deg True)
1981-11-18 21:30:00 UTC,2444927.395833,29.6417,-93.6667,0076,-0.86,-0.52,1.0000,239.0000
1981-11-18 22:00:00 UTC,2444927.416667,29.6417,-93.6667,0076,-1.00,0.03,1.0000,272.0000
1981-11-18 22:30:00 UTC,2444927.437500,29.6417,-93.6667,0076,-2.00,-0.00,2.0000,270.0000
1981-11-18 23:00:00 UTC,2444927.458333,29.6417,-93.6667,0076,-2.98,-0.31,3.0000,264.0000
1981-11-18 23:30:00 UTC,2444927.479167,29.6417,-93.6667,0076,-3.93,-0.76,4.0000,259.0000
1981-11-19 00:00:00 UTC,2444927.500000,29.6417,-93.6667,0076,-4.91,-0.95,5.0000,259.0000
1981-11-19 00:30:00 UTC,2444927.520833,29.6417,-93.6667,0076,-5.82,-1.45,6.0000,256.0000
1981-11-19 01:00:00 UTC,2444927.541667,29.6417,-93.6667,0076,-6.58,-2.39,7.0000,250.0000
1981-11-19 01:30:00 UTC,2444927.562500,29.6417,-93.6667,0076,-8.28,-3.52,9.0000,247.0000
1981-11-19 02:00:00 UTC,2444927.583333,29.6417,-93.6667,0076,-9.27,-3.75,10.0000,248.0000
1981-11-19 02:30:00 UTC,2444927.604167,29.6417,-93.6667,0076,-11.13,-4.50,12.0000,248.0000
1981-11-19 03:00:00 UTC,2444927.625000,29.6417,-93.6667,0076,-11.78,-5.49,13.0000,245.0000
1981-11-19 03:30:00 UTC,2444927.645833,29.6417,-93.6667,0076,-13.37,-6.81,15.0000,243.0000
1981-11-19 04:00:00 UTC,2444927.666667,29.6417,-93.6667,0076,-14.26,-7.26,16.0000,243.0000
1981-11-19 04:30:00 UTC,2444927.687500,29.6417,-93.6667,0076,-13.70,-6.10,15.0000,246.0000
1981-11-19 05:00:00 UTC,2444927.708333,29.6417,-93.6667,0076,-11.54,-3.31,12.0000,254.0000
1981-11-19 05:30:00 UTC,2444927.729167,29.6417,-93.6667,0076,-8.98,-0.63,9.0000,266.0000
1981-11-19 06:00:00 UTC,2444927.750000,29.6417,-93.6667,0076,-7.90,1.25,8.0000,279.0000
1981-11-19 06:30:00 UTC,2444927.770833,29.6417,-93.6667,0076,-7.85,1.53,8.0000,281.0000
1981-11-19 07:00:00 UTC,2444927.791667,29.6417,-93.6667,0076,-7.90,1.25,8.0000,279.0000
1981-11-19 07:30:00 UTC,2444927.812500,29.6417,-93.6667,0076,-7.85,1.53,8.0000,281.0000
1981-11-19 08:00:00 UTC,2444927.833333,29.6417,-93.6667,0076,-7.56,2.60,8.0000,289.0000
1981-11-19 08:30:00 UTC,2444927.854167,29.6417,-93.6667,0076,-7.79,4.50,9.0000,300.0000
1981-11-19 09:00:00 UTC,2444927.875000,29.6417,-93.6667,0076,-7.55,6.56,10.0000,311.0000
1981-11-19 09:30:00 UTC,2444927.895833,29.6417,-93.6667,0076,-6.29,7.77,10.0000,321.0000
1981-11-19 10:00:00 UTC,2444927.916667,29.6417,-93.6667,0076,-5.16,7.37,9.0000,325.0000
1981-11-19 10:30:00 UTC,2444927.937500,29.6417,-93.6667,0076,-4.95,4.95,7.0000,315.0000
1981-11-19 11:00:00 UTC,2444927.958333,29.6417,-93.6667,0076,-4.24,2.65,5.0000,302.0000
1981-11-19 11:30:00 UTC,2444927.979167,29.6417,-93.6667,0076,-4.37,2.42,5.0000,299.0000
1981-11-19 12:00:00 UTC,2444928.000000,29.6417,-93.6667,0076,-5.09,3.18,6.0000,302.0000
1981-11-19 12:30:00 UTC,2444928.020833,29.6417,-93.6667,0076,-5.09,3.18,6.0000,302.0000
1981-11-19 13:00:00 UTC,2444928.041667,29.6417,-93.6667,0076,-6.44,2.74,7.0000,293.0000
1981-11-19 13:30:00 UTC,2444928.062500,29.6417,-93.6667,0076,-6.87,1.34,7.0000,281.0000
1981-11-19 14:00:00 UTC,2444928.083333,29.6417,-93.6667,0076,-7.76,1.94,8.0000,284.0000
1981-11-19 14:30:00 UTC,2444928.104167,29.6417,-93.6667,0076,-9.56,2.92,10.0000,287.0000
1981-11-19 15:00:00 UTC,2444928.125000,29.6417,-93.6667,0076,-10.80,2.10,11.0000,281.0000
1981-11-19 15:30:00 UTC,2444928.145833,29.6417,-93.6667,0076,-11.85,1.88,12.0000,279.0000
1981-11-19 16:00:00 UTC,2444928.166667,29.6417,-93.6667,0076,-11.64,2.90,12.0000,284.0000
1981-11-19 16:30:00 UTC,2444928.187500,29.6417,-93.6667,0076,-10.40,3.58,11.0000,289.0000
1981-11-19 17:00:00 UTC,2444928.208333,29.6417,-93.6667,0076,-7.95,4.23,9.0000,298.0000
1981-11-19 17:30:00 UTC,2444928.229167,29.6417,-93.6667,0076,-6.22,5.03,8.0000,309.0000
1981-11-19 18:00:00 UTC,2444928.250000,29.6417,-93.6667,0076,-4.39,4.09,6.0000,313.0000
1981-11-19 18:30:00 UTC,2444928.270833,29.6417,-93.6667,0076,-3.72,3.35,5.0000,312.0000
1981-11-19 19:00:00 UTC,2444928.291667,29.6417,-93.6667,0076,-4.24,2.65,5.0000,302.0000
1981-11-19 19:30:00 UTC,2444928.312500,29.6417,-93.6667,0076,-5.44,2.54,6.0000,295.0000
1981-11-19 20:00:00 UTC,2444928.333333,29.6417,-93.6667,0076,-4.24,2.65,5.0000,302.0000
1981-11-19 20:30:00 UTC,2444928.354167,29.6417,-93.6667,0076,-4.24,4.24,6.0000,315.0000
1981-11-19 21:00:00 UTC,2444928.375000,29.6417,-93.6667,0076,-5.29,7.28,9.0000,324.0000
1981-11-19 21:30:00 UTC,2444928.395833,29.6417,-93.6667,0076,-4.66,12.14,13.0000,339.0000
1981-11-19 22:00:00 UTC,2444928.416667,29.6417,-93.6667,0076,-3.05,15.71,16.0000,349.0000
1981-11-19 22:30:00 UTC,2444928.437500,29.6417,-93.6667,0076,-2.82,17.78,18.0000,351.0000
1981-11-19 23:00:00 UTC,2444928.458333,29.6417,-93.6667,0076,-2.78,19.81,20.0000,352.0000
1981-11-19 23:30:00 UTC,2444928.479167,29.6417,-93.6667,0076,-2.09,19.89,20.0000,354.0000
1981-11-20 00:00:00 UTC,2444928.500000,29.6417,-93.6667,0076,-1.66,18.93,19.0000,355.0000
1981-11-20 00:30:00 UTC,2444928.520833,29.6417,-93.6667,0076,-2.64,18.82,19.0000,352.0000
1981-11-20 01:00:00 UTC,2444928.541667,29.6417,-93.6667,0076,-3.82,19.63,20.0000,349.0000
1981-11-20 01:30:00 UTC,2444928.562500,29.6417,-93.6667,0076,-2.92,20.80,21.0000,352.0000
1981-11-20 02:00:00 UTC,2444928.583333,29.6417,-93.6667,0076,-0.66,18.99,19.0000,358.0000
1981-11-20 02:30:00 UTC,2444928.604167,29.6417,-93.6667,0076,1.88,17.90,18.0000,6.0000
1981-11-20 03:00:00 UTC,2444928.625000,29.6417,-93.6667,0076,4.60,18.44,19.0000,14.0000
1981-11-20 03:30:00 UTC,2444928.645833,29.6417,-93.6667,0076,5.44,20.28,21.0000,15.0000
1981-11-20 04:00:00 UTC,2444928.666667,29.6417,-93.6667,0076,3.29,20.74,21.0000,9.0000
1981-11-20 04:30:00 UTC,2444928.687500,29.6417,-93.6667,0076,1.66,18.93,19.0000,5.0000
1981-11-20 05:00:00 UTC,2444928.708333,29.6417,-93.6667,0076,0.89,16.98,17.0000,3.0000
1981-11-20 05:30:00 UTC,2444928.729167,29.6417,-93.6667,0076,0.52,14.99,15.0000,2.0000
1981-11-20 06:00:00 UTC,2444928.750000,29.6417,-93.6667,0076,1.13,12.95,13.0000,5.0000
1981-11-20 06:30:00 UTC,2444928.770833,29.6417,-93.6667,0076,1.72,10.86,11.0000,9.0000
1981-11-20 07:00:00 UTC,2444928.791667,29.6417,-93.6667,0076,2.59,9.66,10.0000,15.0000
1981-11-20 07:30:00 UTC,2444928.812500,29.6417,-93.6667,0076,3.37,8.34,9.0000,22.0000
1981-11-20 08:00:00 UTC,2444928.833333,29.6417,-93.6667,0076,3.88,7.00,8.0000,29.0000
1981-11-20 08:30:00 UTC,2444928.854167,29.6417,-93.6667,0076,3.44,4.91,6.0000,35.0000
1981-11-20 09:00:00 UTC,2444928.875000,29.6417,-93.6667,0076,2.94,4.05,5.0000,36.0000
1981-11-20 09:30:00 UTC,2444928.895833,29.6417,-93.6667,0076,2.58,4.29,5.0000,31.0000
1981-11-20 10:00:00 UTC,2444928.916667,29.6417,-93.6667,0076,3.69,4.73,6.0000,38.0000
1981-11-20 10:30:00 UTC,2444928.937500,29.6417,-93.6667,0076,6.55,4.59,8.0000,55.0000
1981-11-20 11:00:00 UTC,2444928.958333,29.6417,-93.6667,0076,8.99,4.38,10.0000,64.0000
1981-11-20 11:30:00 UTC,2444928.979167,29.6417,-93.6667,0076,8.51,2.93,9.0000,71.0000
1981-11-20 12:00:00 UTC,2444929.000000,29.6417,-93.6667,0076,7.85,1.53,8.0000,79.0000
1981-11-20 12:30:00 UTC,2444929.020833,29.6417,-93.6667,0076,5.98,0.52,6.0000,85.0000
1981-11-20 13:00:00 UTC,2444929.041667,29.6417,-93.6667,0076,4.00,0.14,4.0000,88.0000
1981-11-20 13:30:00 UTC,2444929.062500,29.6417,-93.6667,0076,2.80,1.08,3.0000,69.0000
1981-11-20 14:00:00 UTC,2444929.083333,29.6417,-93.6667,0076,2.08,2.16,3.0000,44.0000
1981-11-20 14:30:00 UTC,2444929.104167,29.6417,-93.6667,0076,3.46,2.00,4.0000,60.0000
1981-11-20 15:00:00 UTC,2444929.125000,29.6417,-93.6667,0076,4.89,1.04,5.0000,78.0000
1981-11-20 15:30:00 UTC,2444929.145833,29.6417,-93.6667,0076,6.93,0.97,7.0000,82.0000
1981-11-20 16:00:00 UTC,2444929.166667,29.6417,-93.6667,0076,6.96,0.73,7.0000,84.0000
1981-11-20 16:30:00 UTC,2444929.187500,29.6417,-93.6667,0076,6.87,1.34,7.0000,79.0000
1981-11-20 17:00:00 UTC,2444929.208333,29.6417,-93.6667,0076,6.62,2.28,7.0000,71.0000
1981-11-20 17:30:00 UTC,2444929.229167,29.6417,-93.6667,0076,5.64,2.05,6.0000,70.0000
1981-11-20 18:00:00 UTC,2444929.250000,29.6417,-93.6667,0076,4.70,1.71,5.0000,70.0000
1981-11-20 18:30:00 UTC,2444929.270833,29.6417,-93.6667,0076,4.53,2.11,5.0000,65.0000
1981-11-20 19:00:00 UTC,2444929.291667,29.6417,-93.6667,0076,5.52,2.34,6.0000,67.0000
1981-11-20 19:30:00 UTC,2444929.312500,29.6417,-93.6667,0076,7.65,2.34,8.0000,73.0000
1981-11-20 20:00:00 UTC,2444929.333333,29.6417,-93.6667,0076,8.73,2.18,9.0000,76.0000
1981-11-20 20:30:00 UTC,2444929.354167,29.6417,-93.6667,0076,7.79,1.80,8.0000,77.0000
1981-11-20 21:00:00 UTC,2444929.375000,29.6417,-93.6667,0076,7.83,1.66,8.0000,78.0000
1981-11-20 21:30:00 UTC,2444929.395833,29.6417,-93.6667,0076,5.87,1.25,6.0000,78.0000
1981-11-20 22:00:00 UTC,2444929.416667,29.6417,-93.6667,0076,4.89,1.04,5.0000,78.0000
1981-11-20 22:30:00 UTC,2444929.437500,29.6417,-93.6667,0076,3.94,0.69,4.0000,80.0000
1981-11-20 23:00:00 UTC,2444929.458333,29.6417,-93.6667,0076,3.98,0.42,4.0000,84.0000
1981-11-20 23:30:00 UTC,2444929.479167,29.6417,-93.6667,0076,4.83,1.29,5.0000,75.0000
1981-11-21 00:00:00 UTC,2444929.500000,29.6417,-93.6667,0076,5.48,2.44,6.0000,66.0000
1981-11-21 00:30:00 UTC,2444929.520833,29.6417,-93.6667,0076,6.49,2.62,7.0000,68.0000
1981-11-21 01:00:00 UTC,2444929.541667,29.6417,-93.6667,0076,6.58,2.39,7.0000,70.0000
1981-11-21 01:30:00 UTC,2444929.562500,29.6417,-93.6667,0076,7.52,2.74,8.0000,70.0000
1981-11-21 02:00:00 UTC,2444929.583333,29.6417,-93.6667,0076,6.44,2.74,7.0000,67.0000
1981-11-21 02:30:00 UTC,2444929.604167,29.6417,-93.6667,0076,4.29,2.58,5.0000,59.0000
1981-11-21 03:00:00 UTC,2444929.625000,29.6417,-93.6667,0076,1.29,1.53,2.0000,40.0000
1981-11-21 03:30:00 UTC,2444929.645833,29.6417,-93.6667,0076,0.07,2.00,2.0000,2.0000
1981-11-21 04:00:00 UTC,2444929.666667,29.6417,-93.6667,0076,-0.17,1.99,2.0000,355.0000
1981-11-21 04:30:00 UTC,2444929.687500,29.6417,-93.6667,0076,-0.47,2.96,3.0000,351.0000
1981-11-21 05:00:00 UTC,2444929.708333,29.6417,-93.6667,0076,-0.90,3.90,4.0000,347.0000
1981-11-21 05:30:00 UTC,2444929.729167,29.6417,-93.6667,0076,-0.57,2.94,3.0000,349.0000
1981-11-21 06:00:00 UTC,2444929.750000,29.6417,-93.6667,0076,0.07,2.00,2.0000,2.0000
1981-11-21 06:30:00 UTC,2444929.770833,29.6417,-93.6667,0076,0.00,0.00,0.0000,25.0000
1981-11-21 07:00:00 UTC,2444929.791667,29.6417,-93.6667,0076,-0.00,-0.00,0.0000,240.0000
1981-11-21 07:30:00 UTC,2444929.812500,29.6417,-93.6667,0076,-0.77,-0.64,1.0000,230.0000
1981-11-21 08:00:00 UTC,2444929.833333,29.6417,-93.6667,0076,-1.46,-1.36,2.0000,227.0000
1981-11-21 08:30:00 UTC,2444929.854167,29.6417,-93.6667,0076,-2.23,-2.01,3.0000,228.0000
1981-11-21 09:00:00 UTC,2444929.875000,29.6417,-93.6667,0076,-2.26,-1.97,3.0000,229.0000
1981-11-21 09:30:00 UTC,2444929.895833,29.6417,-93.6667,0076,-2.23,-2.01,3.0000,228.0000
1981-11-21 10:00:00 UTC,2444929.916667,29.6417,-93.6667,0076,-0.71,-0.71,1.0000,225.0000
1981-11-21 10:30:00 UTC,2444929.937500,29.6417,-93.6667,0076,-0.00,-0.00,0.0000,219.0000
1981-11-21 11:00:00 UTC,2444929.958333,29.6417,-93.6667,0076,-0.00,-0.00,0.0000,181.0000
1981-11-21 11:30:00 UTC,2444929.979167,29.6417,-93.6667,0076,0.00,-0.00,0.0000,179.0000
1981-11-21 12:00:00 UTC,2444930.000000,29.6417,-93.6667,0076,0.00,-0.00,0.0000,151.0000
1981-11-21 12:30:00 UTC,2444930.020833,29.6417,-93.6667,0076,-0.00,-0.00,0.0000,200.0000
1981-11-21 13:00:00 UTC,2444930.041667,29.6417,-93.6667,0076,-0.88,0.47,1.0000,298.0000
1981-11-21 13:30:00 UTC,2444930.062500,29.6417,-93.6667,0076,-1.77,0.94,2.0000,298.0000
1981-11-21 14:00:00 UTC,2444930.083333,29.6417,-93.6667,0076,-3.65,1.63,4.0000,294.0000
1981-11-21 14:30:00 UTC,2444930.104167,29.6417,-93.6667,0076,-4.76,1.55,5.0000,288.0000
1981-11-21 15:00:00 UTC,2444930.125000,29.6417,-93.6667,0076,-6.85,1.46,7.0000,282.0000
1981-11-21 15:30:00 UTC,2444930.145833,29.6417,-93.6667,0076,-7.94,0.97,8.0000,277.0000
1981-11-21 16:00:00 UTC,2444930.166667,29.6417,-93.6667,0076,-7.97,0.70,8.0000,275.0000
1981-11-21 16:30:00 UTC,2444930.187500,29.6417,-93.6667,0076,-8.00,0.28,8.0000,272.0000
1981-11-21 17:00:00 UTC,2444930.208333,29.6417,-93.6667,0076,-8.98,-0.63,9.0000,266.0000
1981-11-21 17:30:00 UTC,2444930.229167,29.6417,-93.6667,0076,-9.90,-1.39,10.0000,262.0000
1981-11-21 18:00:00 UTC,2444930.250000,29.6417,-93.6667,0076,-9.78,-2.08,10.0000,258.0000
1981-11-21 18:30:00 UTC,2444930.270833,29.6417,-93.6667,0076,-8.69,-2.33,9.0000,255.0000
1981-11-21 19:00:00 UTC,2444930.291667,29.6417,-93.6667,0076,-8.34,-3.37,9.0000,248.0000
1981-11-21 19:30:00 UTC,2444930.312500,29.6417,-93.6667,0076,-7.19,-5.42,9.0000,233.0000
1981-11-21 20:00:00 UTC,2444930.333333,29.6417,-93.6667,0076,-5.54,-7.09,9.0000,218.0000
1981-11-21 20:30:00 UTC,2444930.354167,29.6417,-93.6667,0076,-4.64,-7.71,9.0000,211.0000
1981-11-21 21:00:00 UTC,2444930.375000,29.6417,-93.6667,0076,-3.80,-8.16,9.0000,205.0000
1981-11-21 21:30:00 UTC,2444930.395833,29.6417,-93.6667,0076,-3.08,-8.46,9.0000,200.0000
1981-11-21 22:00:00 UTC,2444930.416667,29.6417,-93.6667,0076,-2.63,-8.61,9.0000,197.0000
1981-11-21 22:30:00 UTC,2444930.437500,29.6417,-93.6667,0076,-1.81,-6.76,7.0000,195.0000
1981-11-21 23:00:00 UTC,2444930.458333,29.6417,-93.6667,0076,-0.94,-5.93,6.0000,189.0000
1981-11-21 23:30:00 UTC,2444930.479167,29.6417,-93.6667,0076,-0.84,-5.94,6.0000,188.0000
1981-11-22 00:00:00 UTC,2444930.500000,29.6417,-93.6667,0076,-1.95,-5.67,6.0000,199.0000
1981-11-22 00:30:00 UTC,2444930.520833,29.6417,-93.6667,0076,-3.41,-3.66,5.0000,223.0000
1981-11-22 01:00:00 UTC,2444930.541667,29.6417,-93.6667,0076,-4.60,-1.95,5.0000,247.0000
1981-11-22 01:30:00 UTC,2444930.562500,29.6417,-93.6667,0076,-5.85,-1.35,6.0000,257.0000
1981-11-22 02:00:00 UTC,2444930.583333,29.6417,-93.6667,0076,-6.93,-0.97,7.0000,262.0000
1981-11-22 02:30:00 UTC,2444930.604167,29.6417,-93.6667,0076,-6.98,-0.49,7.0000,266.0000
1981-11-22 03:00:00 UTC,2444930.625000,29.6417,-93.6667,0076,-8.00,0.14,8.0000,271.0000
1981-11-22 03:30:00 UTC,2444930.645833,29.6417,-93.6667,0076,-8.99,0.31,9.0000,272.0000
1981-11-22 04:00:00 UTC,2444930.666667,29.6417,-93.6667,0076,-9.00,-0.16,9.0000,269.0000
1981-11-22 04:30:00 UTC,2444930.687500,29.6417,-93.6667,0076,-9.93,-1.22,10.0000,263.0000
1981-11-22 05:00:00 UTC,2444930.708333,29.6417,-93.6667,0076,-10.67,-2.66,11.0000,256.0000
1981-11-22 05:30:00 UTC,2444930.729167,29.6417,-93.6667,0076,-9.56,-2.92,10.0000,253.0000
1981-11-22 06:00:00 UTC,2444930.750000,29.6417,-93.6667,0076,-10.72,-2.47,11.0000,257.0000
1981-11-22 06:30:00 UTC,2444930.770833,29.6417,-93.6667,0076,-10.80,-2.10,11.0000,259.0000
1981-11-22 07:00:00 UTC,2444930.791667,29.6417,-93.6667,0076,-10.67,-2.66,11.0000,256.0000
1981-11-22 07:30:00 UTC,2444930.812500,29.6417,-93.6667,0076,-9.40,-3.42,10.0000,250.0000
1981-11-22 08:00:00 UTC,2444930.833333,29.6417,-93.6667,0076,-8.09,-3.95,9.0000,244.0000
1981-11-22 08:30:00 UTC,2444930.854167,29.6417,-93.6667,0076,-7.13,-3.63,8.0000,243.0000
1981-11-22 09:00:00 UTC,2444930.875000,29.6417,-93.6667,0076,-4.78,-1.46,5.0000,253.0000
1981-11-22 09:30:00 UTC,2444930.895833,29.6417,-93.6667,0076,-2.00,0.03,2.0000,271.0000
1981-11-22 10:00:00 UTC,2444930.916667,29.6417,-93.6667,0076,-0.00,0.00,0.0000,297.0000
1981-11-22 10:30:00 UTC,2444930.937500,29.6417,-93.6667,0076,-0.03,1.00,1.0000,358.0000
1981-11-22 11:00:00 UTC,2444930.958333,29.6417,-93.6667,0076,0.24,1.99,2.0000,7.0000
1981-11-22 11:30:00 UTC,2444930.979167,29.6417,-93.6667,0076,0.45,1.95,2.0000,13.0000
1981-11-22 12:00:00 UTC,2444931.000000,29.6417,-93.6667,0076,0.31,0.95,1.0000,18.0000
1981-11-22 12:30:00 UTC,2444931.020833,29.6417,-93.6667,0076,0.33,0.95,1.0000,19.0000
1981-11-22 13:00:00 UTC,2444931.041667,29.6417,-93.6667,0076,-0.29,0.96,1.0000,343.0000
1981-11-22 13:30:00 UTC,2444931.062500,29.6417,-93.6667,0076,-3.00,-0.10,3.0000,268.0000
1981-11-22 14:00:00 UTC,2444931.083333,29.6417,-93.6667,0076,-5.96,-0.73,6.0000,263.0000
1981-11-22 14:30:00 UTC,2444931.104167,29.6417,-93.6667,0076,-8.98,-0.63,9.0000,266.0000
1981-11-22 15:00:00 UTC,2444931.125000,29.6417,-93.6667,0076,-11.00,-0.19,11.0000,269.0000
1981-11-22 15:30:00 UTC,2444931.145833,29.6417,-93.6667,0076,-12.99,-0.45,13.0000,268.0000
1981-11-22 16:00:00 UTC,2444931.166667,29.6417,-93.6667,0076,-13.90,-1.71,14.0000,263.0000
1981-11-22 16:30:00 UTC,2444931.187500,29.6417,-93.6667,0076,-14.72,-2.86,15.0000,259.0000
1981-11-22 17:00:00 UTC,2444931.208333,29.6417,-93.6667,0076,-15.65,-3.33,16.0000,258.0000
1981-11-22 17:30:00 UTC,2444931.229167,29.6417,-93.6667,0076,-14.77,-2.60,15.0000,260.0000
1981-11-22 18:00:00 UTC,2444931.250000,29.6417,-93.6667,0076,-13.83,-2.19,14.0000,261.0000
1981-11-22 18:30:00 UTC,2444931.270833,29.6417,-93.6667,0076,-12.76,-2.48,13.0000,259.0000
1981-11-22 19:00:00 UTC,2444931.291667,29.6417,-93.6667,0076,-12.50,-3.58,13.0000,254.0000
1981-11-22 19:30:00 UTC,2444931.312500,29.6417,-93.6667,0076,-13.07,-5.02,14.0000,249.0000
1981-11-22 20:00:00 UTC,2444931.333333,29.6417,-93.6667,0076,-12.69,-5.92,14.0000,245.0000
1981-11-22 20:30:00 UTC,2444931.354167,29.6417,-93.6667,0076,-12.69,-5.92,14.0000,245.0000
1981-11-22 21:00:00 UTC,2444931.375000,29.6417,-93.6667,0076,-11.88,-5.29,13.0000,246.0000
1981-11-22 21:30:00 UTC,2444931.395833,29.6417,-93.6667,0076,-11.68,-5.70,13.0000,244.0000
1981-11-22 22:00:00 UTC,2444931.416667,29.6417,-93.6667,0076,-10.88,-5.07,12.0000,245.0000
1981-11-22 22:30:00 UTC,2444931.437500,29.6417,-93.6667,0076,-11.20,-4.30,12.0000,249.0000
1981-11-22 23:00:00 UTC,2444931.458333,29.6417,-93.6667,0076,-10.46,-3.40,11.0000,252.0000
1981-11-22 23:30:00 UTC,2444931.479167,29.6417,-93.6667,0076,-9.56,-2.92,10.0000,253.0000
1981-11-23 00:00:00 UTC,2444931.500000,29.6417,-93.6667,0076,-9.56,-2.92,10.0000,253.0000
1981-11-23 00:30:00 UTC,2444931.520833,29.6417,-93.6667,0076,-9.61,-2.76,10.0000,254.0000
1981-11-23 01:00:00 UTC,2444931.541667,29.6417,-93.6667,0076,-8.80,-1.87,9.0000,258.0000
1981-11-23 01:30:00 UTC,2444931.562500,29.6417,-93.6667,0076,-8.86,-1.56,9.0000,260.0000
1981-11-23 02:00:00 UTC,2444931.583333,29.6417,-93.6667,0076,-8.86,-1.56,9.0000,260.0000
1981-11-23 02:30:00 UTC,2444931.604167,29.6417,-93.6667,0076,-8.86,-1.56,9.0000,260.0000
1981-11-23 03:00:00 UTC,2444931.625000,29.6417,-93.6667,0076,-9.85,-1.74,10.0000,260.0000
1981-11-23 03:30:00 UTC,2444931.645833,29.6417,-93.6667,0076,-9.78,-2.08,10.0000,258.0000
1981-11-23 04:00:00 UTC,2444931.666667,29.6417,-93.6667,0076,-9.78,-2.08,10.0000,258.0000
1981-11-23 04:30:00 UTC,2444931.687500,29.6417,-93.6667,0076,-9.74,-2.25,10.0000,257.0000
1981-11-23 05:00:00 UTC,2444931.708333,29.6417,-93.6667,0076,-9.78,-2.08,10.0000,258.0000
1981-11-23 05:30:00 UTC,2444931.729167,29.6417,-93.6667,0076,-9.82,-1.91,10.0000,259.0000
1981-11-23 06:00:00 UTC,2444931.750000,29.6417,-93.6667,0076,-9.82,-1.91,10.0000,259.0000
1981-11-23 06:30:00 UTC,2444931.770833,29.6417,-93.6667,0076,-8.77,-2.02,9.0000,257.0000
1981-11-23 07:00:00 UTC,2444931.791667,29.6417,-93.6667,0076,-7.76,-1.94,8.0000,256.0000
1981-11-23 07:30:00 UTC,2444931.812500,29.6417,-93.6667,0076,-6.49,-2.62,7.0000,248.0000
1981-11-23 08:00:00 UTC,2444931.833333,29.6417,-93.6667,0076,-6.12,-3.39,7.0000,241.0000
1981-11-23 08:30:00 UTC,2444931.854167,29.6417,-93.6667,0076,-6.39,-2.85,7.0000,246.0000
1981-11-23 09:00:00 UTC,2444931.875000,29.6417,-93.6667,0076,-5.52,-2.34,6.0000,247.0000
1981-11-23 09:30:00 UTC,2444931.895833,29.6417,-93.6667,0076,-3.46,-2.00,4.0000,240.0000
1981-11-23 10:00:00 UTC,2444931.916667,29.6417,-93.6667,0076,-3.24,-2.35,4.0000,234.0000
1981-11-23 10:30:00 UTC,2444931.937500,29.6417,-93.6667,0076,-3.32,-2.24,4.0000,236.0000
1981-11-23 11:00:00 UTC,2444931.958333,29.6417,-93.6667,0076,-3.46,-2.00,4.0000,240.0000
1981-11-23 11:30:00 UTC,2444931.979167,29.6417,-93.6667,0076,-1.78,-0.91,2.0000,243.0000
1981-11-23 12:00:00 UTC,2444932.000000,29.6417,-93.6667,0076,-0.81,0.59,1.0000,306.0000
1981-11-23 12:30:00 UTC,2444932.020833,29.6417,-93.6667,0076,0.31,1.98,2.0000,9.0000
1981-11-23 13:00:00 UTC,2444932.041667,29.6417,-93.6667,0076,0.21,2.99,3.0000,4.0000
1981-11-23 13:30:00 UTC,2444932.062500,29.6417,-93.6667,0076,0.14,4.00,4.0000,2.0000
1981-11-23 14:00:00 UTC,2444932.083333,29.6417,-93.6667,0076,0.63,3.95,4.0000,9.0000
1981-11-23 14:30:00 UTC,2444932.104167,29.6417,-93.6667,0076,0.69,3.94,4.0000,10.0000
1981-11-23 15:00:00 UTC,2444932.125000,29.6417,-93.6667,0076,0.07,4.00,4.0000,1.0000
1981-11-23 15:30:00 UTC,2444932.145833,29.6417,-93.6667,0076,-0.62,2.93,3.0000,348.0000
1981-11-23 16:00:00 UTC,2444932.166667,29.6417,-93.6667,0076,-1.06,1.70,2.0000,328.0000
1981-11-23 16:30:00 UTC,2444932.187500,29.6417,-93.6667,0076,-2.16,2.08,3.0000,314.0000
1981-11-23 17:00:00 UTC,2444932.208333,29.6417,-93.6667,0076,-3.06,2.57,4.0000,310.0000
1981-11-23 17:30:00 UTC,2444932.229167,29.6417,-93.6667,0076,-3.43,2.06,4.0000,301.0000
1981-11-23 18:00:00 UTC,2444932.250000,29.6417,-93.6667,0076,-2.91,0.73,3.0000,284.0000
1981-11-23 18:30:00 UTC,2444932.270833,29.6417,-93.6667,0076,-3.99,-0.28,4.0000,266.0000
1981-11-23 19:00:00 UTC,2444932.291667,29.6417,-93.6667,0076,-4.73,-1.63,5.0000,251.0000
1981-11-23 19:30:00 UTC,2444932.312500,29.6417,-93.6667,0076,-4.33,-2.50,5.0000,240.0000
1981-11-23 20:00:00 UTC,2444932.333333,29.6417,-93.6667,0076,-4.79,-3.61,6.0000,233.0000
1981-11-23 20:30:00 UTC,2444932.354167,29.6417,-93.6667,0076,-5.52,-4.31,7.0000,232.0000
1981-11-23 21:00:00 UTC,2444932.375000,29.6417,-93.6667,0076,-7.19,-5.42,9.0000,233.0000
1981-11-23 21:30:00 UTC,2444932.395833,29.6417,-93.6667,0076,-7.09,-5.54,9.0000,232.0000
1981-11-23 22:00:00 UTC,2444932.416667,29.6417,-93.6667,0076,-7.55,-6.56,10.0000,229.0000
1981-11-23 22:30:00 UTC,2444932.437500,29.6417,-93.6667,0076,-7.31,-6.82,10.0000,227.0000
1981-11-23 23:00:00 UTC,2444932.458333,29.6417,-93.6667,0076,-6.95,-7.19,10.0000,224.0000
1981-11-23 23:30:00 UTC,2444932.479167,29.6417,-93.6667,0076,-5.03,-6.22,8.0000,219.0000
1981-11-24 00:00:00 UTC,2444932.500000,29.6417,-93.6667,0076,-4.02,-5.73,7.0000,215.0000
1981-11-24 00:30:00 UTC,2444932.520833,29.6417,-93.6667,0076,-4.31,-5.52,7.0000,218.0000
1981-11-24 01:00:00 UTC,2444932.541667,29.6417,-93.6667,0076,-5.12,-4.77,7.0000,227.0000
1981-11-24 01:30:00 UTC,2444932.562500,29.6417,-93.6667,0076,-5.03,-3.27,6.0000,237.0000
1981-11-24 02:00:00 UTC,2444932.583333,29.6417,-93.6667,0076,-4.53,-2.11,5.0000,245.0000
1981-11-24 02:30:00 UTC,2444932.604167,29.6417,-93.6667,0076,-2.91,-0.73,3.0000,256.0000
1981-11-24 03:00:00 UTC,2444932.625000,29.6417,-93.6667,0076,-3.00,-0.10,3.0000,268.0000
1981-11-24 03:30:00 UTC,2444932.645833,29.6417,-93.6667,0076,-3.00,0.10,3.0000,272.0000
1981-11-24 04:00:00 UTC,2444932.666667,29.6417,-93.6667,0076,-3.99,-0.21,4.0000,267.0000
1981-11-24 04:30:00 UTC,2444932.687500,29.6417,-93.6667,0076,-4.97,-0.52,5.0000,264.0000
1981-11-24 05:00:00 UTC,2444932.708333,29.6417,-93.6667,0076,-7.00,0.12,7.0000,271.0000
1981-11-24 05:30:00 UTC,2444932.729167,29.6417,-93.6667,0076,-7.97,0.70,8.0000,275.0000
1981-11-24 06:00:00 UTC,2444932.750000,29.6417,-93.6667,0076,-8.00,0.28,8.0000,272.0000
1981-11-24 06:30:00 UTC,2444932.770833,29.6417,-93.6667,0076,-7.97,-0.70,8.0000,265.0000
1981-11-24 07:00:00 UTC,2444932.791667,29.6417,-93.6667,0076,-7.94,-0.97,8.0000,263.0000
1981-11-24 07:30:00 UTC,2444932.812500,29.6417,-93.6667,0076,-6.97,-0.61,7.0000,265.0000
1981-11-24 08:00:00 UTC,2444932.833333,29.6417,-93.6667,0076,-5.96,-0.73,6.0000,263.0000
1981-11-24 08:30:00 UTC,2444932.854167,29.6417,-93.6667,0076,-4.67,-1.79,5.0000,249.0000
1981-11-24 09:00:00 UTC,2444932.875000,29.6417,-93.6667,0076,-3.32,-2.24,4.0000,236.0000
1981-11-24 09:30:00 UTC,2444932.895833,29.6417,-93.6667,0076,-3.35,-2.18,4.0000,237.0000
1981-11-24 10:00:00 UTC,2444932.916667,29.6417,-93.6667,0076,-3.28,-2.29,4.0000,235.0000
1981-11-24 10:30:00 UTC,2444932.937500,29.6417,-93.6667,0076,-2.12,-2.12,3.0000,225.0000
1981-11-24 11:00:00 UTC,2444932.958333,29.6417,-93.6667,0076,-0.64,-0.77,1.0000,220.0000
1981-11-24 11:30:00 UTC,2444932.979167,29.6417,-93.6667,0076,-0.00,-0.00,0.0000,232.0000